Home > Weather > Nadi > Past weeks

Flag for Fiji Weather for the Past 2 Weeks in Nadi, Fiji

Now
77 °F

Rain showers. Overcast.


Feels Like: 78 °F
Forecast: 82 / 88 °F
Wind: 5 mph from North

Location: Nandi

Current Time: Feb 11, 2016 at 4:17:42 AM

Latest Report: Feb 11, 2016 at 4:00 AM


Visibility: 3 mi

Pressure: 29.71 "Hg

Humidity: 100%

Dew point: 77 °F

Location of NadiLocation

Historic Weather in Nadi — Graph

°F

Nadi Temperature Yesterday

Maximum temperature yesterday: 91 °F (at 10:00 AM)
Minimum temperature yesterday: 79 °F (at 12:00 AM)
Average temperature yesterday: 83 °F

High & Low Weather Summary for the Past Weeks

 TemperatureHumidityPressure
High95 °F (Feb 5, 3:00 PM)100% (Feb 1, 5:00 AM)29.95 "Hg (Feb 1, 5:00 AM)
Low73 °F (Jan 27, 5:00 AM)47% (Feb 5, 4:00 PM)29.62 "Hg (Feb 9, 3:00 PM)
Average83 °F79%29.80 "Hg
* Reported Jan 27 3:00 AM — Feb 11 3:00 AM, Nadi, Weather by CustomWeather, © 2016

Note: Actual official high and low records may vary slightly from our data, if they occured in-between our weather recording intervals... More about our weather records

Advertising

Nadi Weather History for the Previous 24 Hours

 ConditionsComfort  
Time TempWeatherWind HumidityBarometerVisibility
3:00 AM
Thu, Feb 11
77 °FPartly cloudy.6 mph100%29.68 "HgN/A
2:00 AM77 °FPartly cloudy.7 mph100%29.68 "HgN/A
1:00 AM77 °FSprinkles. Partly cloudy.3 mph100%29.71 "HgN/A
12:00 AM79 °FThunderstorms. Passing clouds.5 mph100%29.74 "Hg2 mi
11:00 PM
Wed, Feb 10
79 °FPartly cloudy.3 mph100%29.74 "HgN/A
10:00 PM81 °FLight rain. Partly cloudy.8 mph94%29.74 "HgN/A
9:00 PM84 °FPartly cloudy.6 mph84%29.71 "HgN/A
8:00 PM82 °FPartly cloudy.7 mph89%29.71 "HgN/A
7:00 PM82 °FPartly cloudy.7 mph89%29.68 "HgN/A
6:00 PM86 °FScattered showers. Broken clouds.7 mph79%29.62 "HgN/A
5:00 PM84 °FBroken clouds.5 mph84%29.62 "HgN/A
4:00 PM86 °FBroken clouds.12 mph75%29.62 "HgN/A
3:00 PM86 °FBroken clouds.3 mph79%29.62 "HgN/A
2:00 PM84 °FSprinkles. Broken clouds.7 mph79%29.65 "HgN/A
1:00 PM82 °FBroken clouds.7 mph89%29.68 "HgN/A
12:00 PM82 °FBroken clouds.6 mph89%29.68 "HgN/A
11:00 AM88 °FThunderstorms. Broken clouds.14 mph70%29.68 "HgN/A
10:00 AM91 °FThunderstorms. Broken clouds.6 mph63%29.68 "HgN/A
9:00 AM88 °FBroken clouds.6 mph75%29.68 "HgN/A
8:00 AM82 °FScattered clouds.2 mph89%29.68 "HgN/A
7:00 AM79 °FScattered showers. Scattered clouds.3 mph94%29.68 "HgN/A
6:00 AM79 °FPassing clouds.2 mph94%29.65 "HgN/A
5:00 AM79 °FPassing clouds.5 mph94%29.65 "HgN/A
Weather by CustomWeather, © 2016

See weather overviewHow to use our weather pages